sat.trackr.live / text

‹ back to catalog

STARLINK-32403

NORAD 61629 · 2024-191J

PAYLOAD ACTIVE UNKNOWN

§ Identity

Operator
Country
US
Launch date
2024-10-23
Launch site
AFETR
Launch vehicle
Mass (kg)
RCS (m²)

Purposes: comms

External: N2YO · Heavens-Above · Gunter

§ Orbital elements

Epoch: 2026-09-21T01:04:08.854752Z

Period
94.27 min
Inclination
43.0021°
Eccentricity
0.0001847
Mean motion
15.27580303 rev/d
Perigee alt
481.8 km
Apogee alt
484.3 km
Semi-major
6,861.2 km
B*
3.6684e-5
RAAN
131.2177°
Arg perigee
257.7090°
Mean anomaly
102.3555°
Rev number
10,741

§ Raw data

STARLINK-324031 61629U 24191J   26264.04454693  .00000747  00000+0  36684-4 0  99942 61629  43.0021 131.2177 0001847 257.7090 102.3555 15.27580303107416

JSON: /api/v1/satellites/61629 · /tle

For live sub-satellite position, see the globe view (requires WebGL).

§ Visibility from observer

Set your observer location to see the next 7 days of passes ≥ 10°. The values pass through the URL so the page stays shareable.

No JS? Fill the form by hand. The geolocation button needs JavaScript.